Regional Weather Roundup
Issued by NWS

Home | Current Version | Previous Version | Graphics & Text | Print | Product List | Glossary On
Versions: 1 2 3 4 5 6 7 8 9 10 11 12 13 14 15 16 17 18 19 20 21 22 23 24 25 26 27 28 29 30 31 32 33 34 35 36 37 38 39 40 41 42 43 44 45 46 47 48 49 50
000
ASUS45 KTFX 271410
RWRMT
MONTANA REGIONAL WEATHER ROUNDUP
NATIONAL WEATHER SERVICE GREAT FALLS MT
800 AM MDT MON JUL 27 2015

NOTE: "FAIR" INDICATES FEW OR NO CLOUDS BELOW 12000 FEET WITH NO
SIGNIFICANT WEATHER AND/OR OBSTRUCTIONS TO VISIBILITY.

MTZ001>007-043-271500-
WEST OF THE DIVIDE

CITY           SKY/WX    TMP DP  RH WIND       PRES   REMARKS
KALISPELL      CLOUDY    52  42  69 CALM      29.95R
MISSOULA       LGT RAIN  52  50  93 CALM      30.00R FOG
BUTTE          CLOUDY    49  45  86 W5        29.97F
MULLAN PASS    CLOUDY    43  36  76 VRB3      30.04R
DEER LODGE       N/A     50  46  87 NW15      29.99F
EUREKA           N/A     52  45  76 N3        29.99S
HAMILTON         N/A     52  48  87 NW8       29.99R
LIBBY            N/A     52  43  71 CALM      29.99R
PLAINS           N/A     57  45  64 CALM      29.98R
RONAN            N/A     54  50  86 CALM      30.02R
$$

MTZ008-052>055-271500-
SOUTHWEST MONTANA

CITY           SKY/WX    TMP DP  RH WIND       PRES   REMARKS
BOZEMAN        PTSUNNY   58  52  80 SW14      29.91R
DILLON         CLOUDY    53  49  86 CALM      29.91F
W YELLOWSTONE  MOSUNNY   54  45  71 CALM      29.95F
TWIN BRIDGES     N/A     54  47  77 N13       29.91F
$$

MTZ009-010-012-014-046-048-049-054-271500-
EAST SLOPES AND CENTRAL MONTANA

CITY           SKY/WX    TMP DP  RH WIND       PRES   REMARKS
CUT BANK       CLOUDY    53  44  71 N12       29.95R
GREAT FALLS    CLOUDY    54  51  90 W6        29.90F
MALMSTROM AFB  CLOUDY    56  50  81 W5        29.91S
HELENA         RAIN      54  50  86 W12       29.94R FOG
CONRAD           N/A     54  52  93 W6        29.97R
$$

MTZ011-013-016-021-045-047-050-051-271500-
NORTH CENTRAL MONTANA

CITY           SKY/WX    TMP DP  RH WIND       PRES   REMARKS
HAVRE          LGT RAIN  57  55  93 NE3       29.86F
LEWISTOWN      CLOUDY    59  55  87 NW3       29.90S
CHINOOK          N/A     61  61 100 N3        29.86F
FORT BENTON      N/A     57  55  94 SW5       29.89S
$$

MTZ017>020-022>027-061-062-271500-
NORTHEAST MONTANA

CITY           SKY/WX    TMP DP  RH WIND       PRES   REMARKS
GLASGOW        CLOUDY    67  54  63 NE28G37   29.76S
JORDAN           N/A     67  58  72 N18       29.77R
SIDNEY         MOSUNNY  N/A N/A N/A NW15G21   29.77R
WOLF POINT     MOSUNNY   69  56  62 NE22G29   29.75F
MALTA            N/A     63  58  83 W9        29.85R
PLENTYWOOD       N/A     64  61  88 NE13      29.80S
POPLAR           N/A     70  61  73 N17G25    29.75F
SCOBEY           N/A     62  57  83 N18       29.80F
$$

MTZ028>42-056>058-271500-
SOUTHCENTRAL AND SOUTHEAST MONTANA

CITY           SKY/WX    TMP DP  RH WIND       PRES   REMARKS
BAKER          SUNNY     69  56  62 SE23      29.76R
BILLINGS       MOSUNNY   65  54  67 N12       29.85R
LIVINGSTON     SUNNY     60  52  74 NW5       29.88S
MILES CITY     SUNNY     72  59  63 SE14      29.70S
EKALAKA          N/A     68  57  67 SE5       29.78R
FORSYTH          N/A     68  57  68 SW9       29.73R
LAUREL           N/A     65  52  62 N6        29.86R
ROUNDUP          N/A     65  51  60 N16       29.76F
$$

REGIONAL REPORTS...DAKOTAS

CITY           SKY/WX    TMP DP  RH WIND       PRES   REMARKS
WILLISTON      CLOUDY    69  57  65 NW15      29.81R
MINOT          MOSUNNY   67  64  90 E6        29.81F
DICKINSON      MOSUNNY   70  57  63 NE14      29.79R
BEACH          FAIR      72  57  60 S14       29.77R
CROSBY         FAIR      66  66 100 NE12      29.81F
BISMARCK       PTSUNNY   73  60  63 SE8       29.82R
GRAND FORKS    PTSUNNY   74  68  81 S12       29.86F
FARGO          MOSUNNY   78  71  79 E12       29.85F
BUFFALO SD       N/A     70  61  73 SE16      29.71S
RAPID CITY     SUNNY     70  60  70 S16       29.80F
$$

REGIONAL REPORTS...WYOMING/IDAHO/WASHINGTON

CITY           SKY/WX    TMP DP  RH WIND       PRES   REMARKS
GILLETTE       PTSUNNY   74  46  36 SW14      29.78F
SHERIDAN       MOSUNNY   64  50  60 NW17      29.84R
BUFFALO WY     MOSUNNY   65  47  52 N15       29.86F
CODY           SUNNY     61  50  67 N16G22    29.89F
YELLOWSTONE LA   N/A     50  40  68 CALM      30.02S
IDAHO FALLS    MOSUNNY   58  44  60 S23G30    29.92R
SALMON         CLOUDY    52  52 100 SE9       29.98R
BOISE          MOSUNNY   56  41  57 NW8       30.01R
SPOKANE        MOSUNNY   55  42  61 SW7       30.01R
$$

REGIONAL REPORTS...ALBERTA

CITY           SKY/WX    TMP DP  RH WIND       PRES   REMARKS
EDMONTON       PTSUNNY   57  48  72 W6        29.94R
CALGARY        PTSUNNY   50  41  71 NW13      29.97R
LETHBRIDGE     PTSUNNY   54  46  76 W9        29.95S
MEDICINE HAT   PTSUNNY   55  50  82 SW8       29.88F
WATERTON GATE    N/A     52  43  71 SE1         N/A
MILK RIVER       N/A     54  46  76 NW9         N/A
ONEFOUR          N/A     52  50  93 NW10        N/A
$$

REGIONAL REPORTS...SASKATCHEWAN

CITY           SKY/WX    TMP DP  RH WIND       PRES   REMARKS
SWIFT CURRENT  MOSUNNY   59  57  94 E8        29.83F
REGINA         LGT RAIN  59  57  94 NE6       29.95R FOG
SASKATOON      CLOUDY    63  55  77 W7        29.90S
CYPRESS HILLS    N/A     54  50  87 S2          N/A
VAL MARIE        N/A     61  57  88 E10         N/A
ROCKGLEN         N/A     59  57  94 N13G23      N/A
ASSINIBOIA       N/A     57  55  94 S3          N/A
$$


USA.gov is the U.S. government's official web portal to all federal, state and local government web resources and services.